Regional Weather Roundup
Issued by NWS Grand Forks, ND

Home | Current Version | Previous Version | Text Only | Print | Product List | Glossary On
Versions: 1 2 3 4 5 6 7 8 9 10 11 12 13 14 15 16 17 18 19 20 21 22 23 24 25 26 27 28 29 30 31 32 33 34 35 36 37 38 39 40 41 42 43 44 45 46 47 48 49 50
000
ASUS43 KFGF 220010
RWRFGF
PRAIRIE TO PINES  WEATHER ROUNDUP
NATIONAL WEATHER SERVICE EASTERN NORTH DAKOTA/GRAND FORKS ND
700 PM CDT SUN APR 21 2024

 **SATELLITE DATA USED TO AUGMENT SKY COVER AT AUTOMATED STATIONS**
 *****  WEATHER ACROSS EASTERN NORTH DAKOTA  *****

CITY           SKY/WX    TMP DP  RH WIND       PRES   REMARKS
GRAND FORKS    FAIR      62  19  19 SW16G23   29.93F
6HR MIN TEMP:  58; 6HR MAX TEMP:  64;

GRAND FRKS AFB FAIR      63  14  15 SW13      29.91F
GRAND FRKS NWS   N/A     62  24  23 SW7       29.88F
DEVILS LAKE    FAIR      57  24  28 SW12      29.91F
6HR MIN TEMP:  53; 6HR MAX TEMP:  60;

FARGO          FAIR      64  19  17 S12       29.97F
WAHPETON ARPT  FAIR      61  16  17 SW10G17   29.99F
$$

 ***** WEATHER ACROSS CENTRAL AND WESTERN NORTH DAKOTA  *****

CITY           SKY/WX    TMP DP  RH WIND       PRES   REMARKS
BISMARCK       FAIR      62  19  19 S16G22    29.90F
6HR MIN TEMP:  58; 6HR MAX TEMP:  64;

MINOT          FAIR      63  16  16 S17G25    29.82F
6HR MIN TEMP:  57; 6HR MAX TEMP:  65;

JAMESTOWN      FAIR      61  16  17 SW18G25   29.94F
6HR MIN TEMP:  58; 6HR MAX TEMP:  65;

MINOT AFB      FAIR      62  13  14 SW17      29.79F
GARRISON         N/A     61  19  19 S14       29.84F
WILLISTON      NOT AVBL
DICKINSON      FAIR      63  24  22 S16G25    29.81F
6HR MIN TEMP:  57; 6HR MAX TEMP:  66;

HETTINGER      FAIR      66  23  19 S13       29.86F
6HR MIN TEMP:  57; 6HR MAX TEMP:  66;

$$

 *****  OTHER AIRPORT OBSERVATIONS IN OUR AREA  *****

CITY           SKY/WX    TMP DP  RH WIND       PRES   REMARKS
WALHALLA       FAIR      63  16  16 SW17      29.89F
GRAFTON AIRPOR FAIR      61  23  23 SW17      29.92F
VALLEY CITY AR FAIR      59  18  20 SW16      29.96F
CANDO          FAIR      61  16  17 SW16G22   29.90F
CAVALIER APRT  FAIR      61  21  21 SW13G21   29.89F
GWINNER        SUNNY     61  16  17 SW15G23   29.99F
SHEYENNE NWR     N/A     63  15  15 SW13      29.95S
ROLLA          FAIR      57  16  19 SW21      29.86F
 ***** THE ABOVE OBSERVATIONS ARE NON NWS ARE NOT QUALITY
       CONTROLLED AND MAY MIS-REPORT RAIN FOR SNOW...
$$

  *****  WEATHER ACROSS NORTHERN MINNESOTA  *****

CITY           SKY/WX    TMP DP  RH WIND       PRES   REMARKS
FLAG ISLAND    FAIR      57  10  15 W13G25    29.90F
WARROAD        FAIR      59  25  27 W13       29.91F
ROSEAU         FAIR      61  19  20 SW15      29.91F
HALLOCK        FAIR      63  18  17 SW15G22   29.91F
THF RVR FALLS  FAIR      60  16  18 SW13      29.95F
6HR MIN TEMP:  54; 6HR MAX TEMP:  61;

BAUDETTE       FAIR      62  19  19 W10G20    29.92F
6HR MIN TEMP:  56; 6HR MAX TEMP:  64;

WASKISH        NOT AVBL
CROOKSTON      FAIR      63 N/A N/A SW14      29.94F
STEPHEN NDAWN    N/A     61  18  18 MISG        N/A
GREENBUSH NDAW   N/A     59  19  21 MISG        N/A
$$
  *****  WEATHER ACROSS CENTRAL AND WEST MINNESOTA  *****

CITY           SKY/WX    TMP DP  RH WIND       PRES   REMARKS
FOSSTON        FAIR      57  10  15 W12       29.97F
BEMIDJI        FAIR      58  14  17 W12       29.97F
6HR MIN TEMP:  54; 6HR MAX TEMP:  60;

PARK RAPIDS    FAIR      58  16  19 W10       29.99F
6HR MIN TEMP:  55; 6HR MAX TEMP:  61;

ELBOW LAKE     FAIR      61  11  14 W8G16     30.03F
6HR MIN TEMP:  56; 6HR MAX TEMP:  63;

WADENA         FAIR      57  18  21 W10G16    30.01F
DETROIT LAKES  FAIR      59  12  15 VRB7      29.99F
MOORHEAD       FAIR      63  18  17 SW10      29.98F
FERGUS FALLS   FAIR      61  16  17 SW15      30.01F
MORRIS MN      FAIR      61  19  20 W12       30.02F
STAPLES        FAIR      61  10  13 W10       30.02F
$$
  *****  WEATHER ELSEWHERE ACROSS MINNESOTA  *****

CITY           SKY/WX    TMP DP  RH WIND       PRES   REMARKS
DULUTH         FAIR      57  20  23 W8        29.98F
6HR MIN TEMP:  55; 6HR MAX TEMP:  59;

INTRNTL FALLS  FAIR      58  23  26 SW9       29.92F
6HR MIN TEMP:  51; 6HR MAX TEMP:  60;

ELY            FAIR      54  18  24 W7        29.96F
CLOQUET        FAIR      57  14  18 W9        29.98F
WHEATON        FAIR      61  18  18 SW9       30.04F
BRAINERD       FAIR      59  15  18 W9        30.01F
6HR MIN TEMP:  56; 6HR MAX TEMP:  61;

HIBBING        FAIR      55  10  16 VRB6      29.97F
6HR MIN TEMP:  52; 6HR MAX TEMP:  58; 6HR PCP: TRACE;

ALEXANDRIA     FAIR      58  17  20 W14       30.04F
6HR MIN TEMP:  55; 6HR MAX TEMP:  61;

SAINT CLOUD    FAIR      60  18  19 NW9       30.03F
6HR MIN TEMP:  58; 6HR MAX TEMP:  63;

MINNEAPOLIS    FAIR      60  17  18 NW13G22   30.05F
6HR MIN TEMP:  55; 6HR MAX TEMP:  61;

$$

  *****  WEATHER ACROSS SOUTH DAKOTA  *****

CITY           SKY/WX    TMP DP  RH WIND       PRES   REMARKS
SIOUX FALLS    FAIR      61  19  19 W9        30.10F
6HR MIN TEMP:  57; 6HR MAX TEMP:  63;

BROOKINGS      FAIR      58  19  22 SW13      30.08F
WATERTOWN      FAIR      58  19  22 SW16      30.04F
6HR MIN TEMP:  54; 6HR MAX TEMP:  60;

HURON          FAIR      61  23  23 SW9G22    30.04F
6HR MIN TEMP:  57; 6HR MAX TEMP:  62;

SISSETON         N/A     61  20  20 SW13      30.01F
ABERDEEN       FAIR      61  22  22 SW17      30.01F
6HR MIN TEMP:  59; 6HR MAX TEMP:  65; 6HR PCP: TRACE;

MITCHELL       FAIR      61  21  21 S12       30.07F
PIERRE         FAIR      65  26  23 S18G25    29.95F
6HR MIN TEMP:  54; 6HR MAX TEMP:  66;

MOBRIDGE       FAIR      62  26  25 S16G25    29.91F
RAPID CITY     FAIR      65  28  24 S12       29.89F
6HR MIN TEMP:  60; 6HR MAX TEMP:  69;

$$

  *****  SOME WEATHER IN NEARBY STATES *****

CITY           SKY/WX    TMP DP  RH WIND       PRES   REMARKS
GLASGOW MT     FAIR      66  30  26 W13       29.76F
6HR MIN TEMP:  60; 6HR MAX TEMP:  73;

GREAT FALLS MT FAIR      57  10  15 W25G36    29.89S
6HR MIN TEMP:  57; 6HR MAX TEMP:  62;

CHEYENNE WY    FAIR      51  34  52 S20G30    30.09F
6HR MIN TEMP:  44; 6HR MAX TEMP:  54;

SCOTTSBLUFF NE FAIR      63  31  30 S13       30.00F
6HR MIN TEMP:  56; 6HR MAX TEMP:  67;

OMAHA NE       FAIR      62  18  18 W5        30.17F
6HR MIN TEMP:  57; 6HR MAX TEMP:  63;

DES MOINES IA  FAIR      61  19  19 W12G21    30.17F
6HR MIN TEMP:  57; 6HR MAX TEMP:  63;

DAVENPORT IA     N/A     57  27  31 MISG      30.16F
6HR MIN TEMP:  53; 6HR MAX TEMP:  59;

CHICAGO IL     FAIR      56  25  30 W12       30.09F
6HR MIN TEMP:  53; 6HR MAX TEMP:  58;

EAU CLAIRE WI  FAIR      58  22  24 W12       30.05F
6HR MIN TEMP:  55; 6HR MAX TEMP:  61;

LA CROSSE WI   FAIR      59  26  28 NW9       30.07F
6HR MIN TEMP:  57; 6HR MAX TEMP:  62;

$$

  *****  SOME NATIONAL WEATHER *****

CITY           SKY/WX    TMP DP  RH WIND       PRES   REMARKS
LA GUARDIA NY  CLOUDY    50  25  37 NW9       29.94R
6HR MIN TEMP:  50; 6HR MAX TEMP:  52;

RALEIGH NC     CLOUDY    50  47  89 NE7       29.95S
6HR MIN TEMP:  50; 6HR MAX TEMP:  52; 6HR PCP:  0.14;

ATLANTA GA     FAIR      56  40  55 NW12      30.01R
6HR MIN TEMP:  51; 6HR MAX TEMP:  60; 6HR PCP: TRACE;

NEW ORLEANS LA FAIR      69  48  47 N16G23    30.07R
6HR MIN TEMP:  65; 6HR MAX TEMP:  72;

OKLAHOMA CITY  FAIR      61  33  35 N7        30.28F
6HR MIN TEMP:  57; 6HR MAX TEMP:  63;

ALBUQUERQUE NM FAIR      71  34  25 VRB3G17   30.13F
6HR MIN TEMP:  61; 6HR MAX TEMP:  72;

SALT LAKE CITY PTSUNNY   77  29  17 CALM      29.98F
6HR MIN TEMP:  71; 6HR MAX TEMP:  79;

LOS ANGELES CA CLOUDY


USA.gov is the U.S. government's official web portal to all federal, state and local government web resources and services.